Wetterdaten: Dienstag, 02.02.2016
Datum Zeit Auen-Temp. Temp gefhlt Luftfeuchte Luftdruck Regen Wind Richtung Richtung Taupunkt Windben
02.02.2016 00:00 4,7 C 4,5 C 85 % 1024,2 hPa 0,0 mm 0,5 km/h (0 Bft) S-SW 202 2,4 C 0,0 km/h (0 Bft)
02.02.2016 00:05 4,8 C 4,5 C 86 % 1024,6 hPa 0,0 mm 0,3 km/h (0 Bft) W-SW 247 2,7 C 0,0 km/h (0 Bft)
02.02.2016 00:10 5,2 C 4,8 C 86 % 1024,6 hPa 0,0 mm 1,8 km/h (1 Bft) SW 225 3,1 C 5,4 km/h (1 Bft)
02.02.2016 00:15 5,2 C 4,9 C 86 % 1024,6 hPa 0,0 mm 2,8 km/h (1 Bft) S 180 3,1 C 3,9 km/h (1 Bft)
02.02.2016 00:20 5,1 C 4,9 C 87 % 1024,6 hPa 0,0 mm 2,1 km/h (1 Bft) NO 45 3,1 C 4,9 km/h (1 Bft)
02.02.2016 00:25 5,0 C 4,8 C 86 % 1024,3 hPa 0,0 mm 1,6 km/h (1 Bft) S 180 2,9 C 0,0 km/h (0 Bft)
02.02.2016 00:30 5,1 C 4,9 C 86 % 1024,3 hPa 0,0 mm 3,6 km/h (1 Bft) W-SW 247 3,0 C 6,0 km/h (2 Bft)
02.02.2016 00:35 5,1 C 4,9 C 86 % 1024,3 hPa 0,0 mm 3,9 km/h (1 Bft) NW 315 3,0 C 8,3 km/h (2 Bft)
02.02.2016 00:40 4,9 C 4,7 C 86 % 1024,3 hPa 0,0 mm 2,3 km/h (1 Bft) S 180 2,8 C 2,8 km/h (1 Bft)
02.02.2016 00:45 4,8 C 4,7 C 87 % 1024,2 hPa 0,0 mm 1,0 km/h (0 Bft) S-SO 157 2,8 C 2,8 km/h (1 Bft)
02.02.2016 00:50 4,8 C 4,6 C 87 % 1024,2 hPa 0,0 mm 0,8 km/h (0 Bft) SO 135 2,8 C 2,8 km/h (1 Bft)
02.02.2016 00:55 4,7 C 4,5 C 87 % 1024,2 hPa 0,0 mm 1,0 km/h (0 Bft) W-SW 247 2,7 C 0,0 km/h (0 Bft)
02.02.2016 01:00 4,7 C 4,5 C 87 % 1024,2 hPa 0,0 mm 0,5 km/h (0 Bft) SO 135 2,7 C 0,0 km/h (0 Bft)
02.02.2016 01:05 4,8 C 4,5 C 87 % 1024,2 hPa 0,0 mm 0,3 km/h (0 Bft) W-SW 247 2,8 C 2,6 km/h (1 Bft)
02.02.2016 01:10 4,7 C 4,5 C 88 % 1024,2 hPa 0,0 mm 1,6 km/h (1 Bft) NO 45 2,9 C 7,8 km/h (2 Bft)
02.02.2016 01:15 4,7 C 4,5 C 88 % 1024,2 hPa 0,0 mm 1,3 km/h (1 Bft) S 180 2,9 C 10,6 km/h (2 Bft)
02.02.2016 01:20 4,8 C 4,6 C 88 % 1024,2 hPa 0,0 mm 0,3 km/h (0 Bft) O-SO 112 3,0 C 0,0 km/h (0 Bft)
02.02.2016 01:25 4,7 C 4,5 C 88 % 1023,9 hPa 0,0 mm 0,3 km/h (0 Bft) W-SW 247 2,9 C 3,6 km/h (1 Bft)
02.02.2016 01:30 4,6 C 4,4 C 88 % 1023,9 hPa 0,0 mm 1,0 km/h (0 Bft) SW 225 2,8 C 5,2 km/h (1 Bft)
02.02.2016 01:35 4,7 C 4,5 C 88 % 1023,9 hPa 0,0 mm 1,6 km/h (1 Bft) NW 315 2,9 C 0,0 km/h (0 Bft)
02.02.2016 01:40 4,9 C 4,7 C 88 % 1023,9 hPa 0,0 mm 2,8 km/h (1 Bft) S-SO 157 3,1 C 0,0 km/h (0 Bft)
02.02.2016 01:45 4,9 C 4,7 C 88 % 1023,9 hPa 0,0 mm 2,3 km/h (1 Bft) S 180 3,1 C 3,9 km/h (1 Bft)
02.02.2016 01:50 5,0 C 4,8 C 88 % 1023,9 hPa 0,0 mm 3,1 km/h (1 Bft) S-SW 202 3,2 C 4,7 km/h (1 Bft)
02.02.2016 01:55 4,7 C 4,6 C 88 % 1023,9 hPa 0,0 mm 2,8 km/h (1 Bft) S-SO 157 2,9 C 11,4 km/h (2 Bft)
02.02.2016 02:00 5,0 C 4,8 C 88 % 1023,9 hPa 0,0 mm 2,3 km/h (1 Bft) SW 225 3,2 C 5,2 km/h (1 Bft)
02.02.2016 02:05 4,9 C 4,7 C 88 % 1024,1 hPa 0,0 mm 1,8 km/h (1 Bft) S 180 3,1 C 0,0 km/h (0 Bft)
02.02.2016 02:10 5,0 C 4,8 C 88 % 1024,1 hPa 0,0 mm 1,3 km/h (1 Bft) S-SW 202 3,2 C 3,4 km/h (1 Bft)
02.02.2016 02:15 5,1 C 5,0 C 88 % 1024,1 hPa 0,0 mm 2,6 km/h (1 Bft) SW 225 3,3 C 8,5 km/h (2 Bft)
02.02.2016 02:20 5,1 C 5,0 C 87 % 1024,1 hPa 0,0 mm 3,1 km/h (1 Bft) S-SO 157 3,1 C 0,0 km/h (0 Bft)
02.02.2016 02:25 4,5 C 4,7 C 87 % 1024,2 hPa 0,0 mm 1,8 km/h (1 Bft) W 270 2,5 C 0,0 km/h (0 Bft)
02.02.2016 02:30 4,9 C 4,7 C 88 % 1024,2 hPa 0,0 mm 1,3 km/h (1 Bft) W-NW 292 3,1 C 2,8 km/h (1 Bft)
02.02.2016 02:35 4,5 C 4,5 C 87 % 1024,2 hPa 0,0 mm 1,3 km/h (1 Bft) S-SO 157 2,5 C 0,0 km/h (0 Bft)
02.02.2016 02:40 4,9 C 4,8 C 88 % 1024,2 hPa 0,0 mm 1,6 km/h (1 Bft) S-SW 202 3,1 C 0,0 km/h (0 Bft)
02.02.2016 02:45 4,8 C 4,7 C 88 % 1024,1 hPa 0,0 mm 1,6 km/h (1 Bft) O-SO 112 3,0 C 3,4 km/h (1 Bft)
02.02.2016 02:50 4,9 C 4,8 C 88 % 1024,1 hPa 0,0 mm 0,8 km/h (0 Bft) S-SO 157 3,1 C 0,0 km/h (0 Bft)
02.02.2016 02:55 4,9 C 4,8 C 88 % 1024,1 hPa 0,0 mm 1,0 km/h (0 Bft) O-SO 112 3,1 C 0,0 km/h (0 Bft)
02.02.2016 03:00 5,0 C 4,9 C 88 % 1024,1 hPa 0,0 mm 1,8 km/h (1 Bft) S-SW 202 3,2 C 4,4 km/h (1 Bft)
02.02.2016 03:05 5,0 C 4,9 C 88 % 1024,0 hPa 0,0 mm 3,1 km/h (1 Bft) S 180 3,2 C 3,1 km/h (1 Bft)
02.02.2016 03:10 5,1 C 5,1 C 87 % 1024,0 hPa 0,0 mm 4,7 km/h (1 Bft) S 180 3,1 C 8,3 km/h (2 Bft)
02.02.2016 03:15 5,1 C 5,0 C 87 % 1024,0 hPa 0,0 mm 4,9 km/h (1 Bft) W-SW 247 3,1 C 7,3 km/h (2 Bft)
02.02.2016 03:20 5,1 C 5,0 C 87 % 1024,0 hPa 0,0 mm 4,9 km/h (1 Bft) W 270 3,1 C 5,4 km/h (1 Bft)
02.02.2016 03:25 5,2 C 5,1 C 87 % 1023,6 hPa 0,0 mm 4,7 km/h (1 Bft) W-SW 247 3,2 C 11,7 km/h (2 Bft)
02.02.2016 03:30 5,2 C 5,0 C 87 % 1023,6 hPa 0,0 mm 5,4 km/h (1 Bft) W-SW 247 3,2 C 8,8 km/h (2 Bft)
02.02.2016 03:35 5,3 C 5,1 C 87 % 1023,6 hPa 0,0 mm 6,2 km/h (2 Bft) S 180 3,3 C 16,8 km/h (3 Bft)
02.02.2016 03:40 5,4 C 5,0 C 87 % 1023,6 hPa 0,0 mm 8,3 km/h (2 Bft) W-SW 247 3,4 C 15,3 km/h (3 Bft)
02.02.2016 03:45 5,4 C 5,0 C 87 % 1023,1 hPa 0,0 mm 9,3 km/h (2 Bft) SW 225 3,4 C 24,1 km/h (4 Bft)
02.02.2016 03:50 4,9 C 4,7 C 86 % 1023,1 hPa 0,0 mm 6,5 km/h (2 Bft) SW 225 2,8 C 7,5 km/h (2 Bft)
02.02.2016 03:55 4,8 C 4,7 C 86 % 1023,1 hPa 0,0 mm 2,8 km/h (1 Bft) W-NW 292 2,7 C 3,4 km/h (1 Bft)
02.02.2016 04:00 4,7 C 4,6 C 86 % 1023,1 hPa 0,0 mm 1,6 km/h (1 Bft) O-NO 67 2,6 C 5,4 km/h (1 Bft)
02.02.2016 04:05 4,6 C 4,5 C 86 % 1023,2 hPa 0,0 mm 1,3 km/h (1 Bft) SW 225 2,5 C 0,0 km/h (0 Bft)
02.02.2016 04:10 4,7 C 4,6 C 86 % 1023,2 hPa 0,0 mm 1,3 km/h (1 Bft) SW 225 2,6 C 3,1 km/h (1 Bft)
02.02.2016 04:15 4,7 C 4,6 C 86 % 1023,2 hPa 0,0 mm 0,8 km/h (0 Bft) S-SO 157 2,6 C 0,0 km/h (0 Bft)
02.02.2016 04:20 4,6 C 4,5 C 87 % 1023,2 hPa 0,0 mm 1,0 km/h (0 Bft) W-SW 247 2,6 C 8,5 km/h (2 Bft)
02.02.2016 04:25 4,8 C 4,6 C 87 % 1022,9 hPa 0,0 mm 2,1 km/h (1 Bft) SW 225 2,8 C 8,8 km/h (2 Bft)
02.02.2016 04:30 4,9 C 4,7 C 87 % 1022,9 hPa 0,0 mm 5,4 km/h (1 Bft) SW 225 2,9 C 7,8 km/h (2 Bft)
02.02.2016 04:35 5,2 C 4,7 C 87 % 1022,9 hPa 0,0 mm 8,0 km/h (2 Bft) SW 225 3,2 C 18,4 km/h (3 Bft)
02.02.2016 04:36 5,2 C 4,7 C 87 % 1022,9 hPa 0,0 mm 8,0 km/h (2 Bft) SW 225 3,2 C 18,4 km/h (3 Bft)
02.02.2016 04:40 5,1 C 4,7 C 86 % 1022,9 hPa 0,0 mm 8,3 km/h (2 Bft) W-SW 247 3,0 C 11,1 km/h (2 Bft)
02.02.2016 04:45 4,9 C 4,7 C 86 % 1023,0 hPa 0,0 mm 6,7 km/h (2 Bft) SW 225 2,8 C 24,6 km/h (4 Bft)
02.02.2016 04:50 5,0 C 4,7 C 86 % 1023,0 hPa 0,0 mm 6,5 km/h (2 Bft) SW 225 2,9 C 21,8 km/h (4 Bft)
02.02.2016 04:55 5,0 C 4,6 C 86 % 1023,0 hPa 0,0 mm 7,5 km/h (2 Bft) SO 135 2,9 C 5,4 km/h (1 Bft)
02.02.2016 05:00 5,1 C 4,6 C 85 % 1023,0 hPa 0,0 mm 8,8 km/h (2 Bft) S 180 2,8 C 10,1 km/h (2 Bft)
02.02.2016 05:05 4,9 C 4,6 C 85 % 1022,6 hPa 0,0 mm 7,8 km/h (2 Bft) W 270 2,6 C 3,9 km/h (1 Bft)
02.02.2016 05:10 4,9 C 4,8 C 85 % 1022,6 hPa 0,0 mm 4,4 km/h (1 Bft) NO 45 2,6 C 0,0 km/h (0 Bft)
02.02.2016 05:15 4,6 C 4,5 C 85 % 1022,6 hPa 0,0 mm 2,3 km/h (1 Bft) S 180 2,3 C 7,8 km/h (2 Bft)
02.02.2016 05:20 4,9 C 4,8 C 85 % 1022,6 hPa 0,0 mm 4,4 km/h (1 Bft) S-SW 202 2,6 C 6,2 km/h (2 Bft)
02.02.2016 05:25 5,0 C 4,7 C 85 % 1022,4 hPa 0,0 mm 6,7 km/h (2 Bft) SW 225 2,7 C 6,5 km/h (2 Bft)
02.02.2016 05:30 4,7 C 4,6 C 85 % 1022,4 hPa 0,0 mm 5,2 km/h (1 Bft) W-NW 292 2,4 C 4,4 km/h (1 Bft)
02.02.2016 05:35 4,7 C 4,6 C 85 % 1022,4 hPa 0,0 mm 3,9 km/h (1 Bft) W 270 2,4 C 0,0 km/h (0 Bft)
02.02.2016 05:40 4,7 C 4,6 C 85 % 1022,4 hPa 0,0 mm 2,6 km/h (1 Bft) SW 225 2,4 C 3,9 km/h (1 Bft)
02.02.2016 05:45 4,7 C 4,6 C 85 % 1022,2 hPa 0,0 mm 2,6 km/h (1 Bft) O-SO 112 2,4 C 3,9 km/h (1 Bft)
02.02.2016 05:50 4,9 C 4,7 C 85 % 1022,2 hPa 0,0 mm 4,4 km/h (1 Bft) NW 315 2,6 C 8,5 km/h (2 Bft)
02.02.2016 05:55 5,0 C 4,8 C 84 % 1022,2 hPa 0,0 mm 4,4 km/h (1 Bft) SW 225 2,5 C 6,2 km/h (2 Bft)
02.02.2016 06:00 5,1 C 5,0 C 84 % 1022,2 hPa 0,0 mm 4,9 km/h (1 Bft) SO 135 2,6 C 4,4 km/h (1 Bft)
02.02.2016 06:05 5,1 C 4,9 C 84 % 1022,0 hPa 0,0 mm 5,7 km/h (1 Bft) SO 135 2,6 C 5,2 km/h (1 Bft)
02.02.2016 06:10 5,1 C 4,9 C 84 % 1022,0 hPa 0,0 mm 5,2 km/h (1 Bft) SW 225 2,6 C 4,9 km/h (1 Bft)
02.02.2016 06:15 5,0 C 4,9 C 83 % 1022,0 hPa 0,0 mm 4,9 km/h (1 Bft) S-SO 157 2,4 C 5,7 km/h (1 Bft)
02.02.2016 06:20 4,9 C 4,8 C 83 % 1022,0 hPa 0,0 mm 3,6 km/h (1 Bft) W-NW 292 2,3 C 3,1 km/h (1 Bft)
02.02.2016 06:25 4,7 C 4,6 C 83 % 1022,0 hPa 0,0 mm 2,1 km/h (1 Bft) S-SW 202 2,1 C 0,0 km/h (0 Bft)
02.02.2016 06:30 4,6 C 4,5 C 83 % 1022,0 hPa 0,0 mm 0,8 km/h (0 Bft) SO 135 2,0 C 3,4 km/h (1 Bft)
02.02.2016 06:35 4,8 C 4,6 C 83 % 1022,0 hPa 0,0 mm 1,0 km/h (0 Bft) O-SO 112 2,2 C 0,0 km/h (0 Bft)
02.02.2016 06:40 4,5 C 4,4 C 83 % 1022,0 hPa 0,0 mm 1,3 km/h (1 Bft) O-SO 112 1,9 C 0,0 km/h (0 Bft)
02.02.2016 06:45 4,5 C 4,4 C 83 % 1022,2 hPa 0,0 mm 1,3 km/h (1 Bft) SO 135 1,9 C 5,4 km/h (1 Bft)
02.02.2016 06:50 4,9 C 4,8 C 79 % 1022,2 hPa 0,0 mm 3,1 km/h (1 Bft) W-SW 247 1,6 C 0,0 km/h (0 Bft)
02.02.2016 06:55 4,5 C 4,5 C 82 % 1022,2 hPa 0,0 mm 3,4 km/h (1 Bft) N-NW 337 1,7 C 4,9 km/h (1 Bft)
02.02.2016 07:00 4,5 C 4,4 C 82 % 1022,2 hPa 0,0 mm 2,8 km/h (1 Bft) O-SO 112 1,7 C 6,0 km/h (2 Bft)
02.02.2016 07:05 4,5 C 4,4 C 82 % 1022,0 hPa 0,0 mm 3,9 km/h (1 Bft) SO 135 1,7 C 6,5 km/h (2 Bft)
02.02.2016 07:10 4,5 C 4,4 C 83 % 1022,0 hPa 0,0 mm 3,1 km/h (1 Bft) W 270 1,9 C 6,2 km/h (2 Bft)
02.02.2016 07:15 4,3 C 4,3 C 82 % 1022,0 hPa 0,0 mm 2,1 km/h (1 Bft) N-NO 22 1,5 C 0,0 km/h (0 Bft)
02.02.2016 07:20 4,2 C 4,1 C 83 % 1022,0 hPa 0,0 mm 0,8 km/h (0 Bft) SO 135 1,6 C 4,1 km/h (1 Bft)
02.02.2016 07:25 4,1 C 4,0 C 83 % 1022,4 hPa 0,0 mm 0,5 km/h (0 Bft) O-NO 67 1,5 C 3,1 km/h (1 Bft)
02.02.2016 07:30 4,1 C 3,9 C 83 % 1022,4 hPa 0,0 mm 2,1 km/h (1 Bft) O-SO 112 1,5 C 11,1 km/h (2 Bft)
02.02.2016 07:35 4,4 C 4,3 C 80 % 1022,4 hPa 0,0 mm 3,1 km/h (1 Bft) O-SO 112 1,3 C 4,1 km/h (1 Bft)
02.02.2016 07:40 4,2 C 4,2 C 82 % 1022,4 hPa 0,0 mm 2,6 km/h (1 Bft) NO 45 1,4 C 0,0 km/h (0 Bft)
02.02.2016 07:45 3,9 C 3,9 C 82 % 1022,2 hPa 0,0 mm 1,0 km/h (0 Bft) S-SO 157 1,1 C 0,0 km/h (0 Bft)
02.02.2016 07:50 4,2 C 4,0 C 83 % 1022,2 hPa 0,0 mm 2,1 km/h (1 Bft) N-NO 22 1,6 C 4,7 km/h (1 Bft)
02.02.2016 07:55 3,9 C 3,8 C 83 % 1022,2 hPa 0,0 mm 2,3 km/h (1 Bft) S-SO 157 1,3 C 4,1 km/h (1 Bft)
02.02.2016 08:00 3,7 C 3,6 C 83 % 1022,2 hPa 0,0 mm 1,3 km/h (1 Bft) O-SO 112 1,1 C 3,1 km/h (1 Bft)
02.02.2016 08:05 3,6 C 3,5 C 83 % 1022,3 hPa 0,0 mm 0,8 km/h (0 Bft) SO 135 1,0 C 0,0 km/h (0 Bft)
02.02.2016 08:10 3,4 C 3,3 C 83 % 1022,3 hPa 0,0 mm 0,8 km/h (0 Bft) O-NO 67 0,8 C 0,0 km/h (0 Bft)
02.02.2016 08:15 3,6 C 3,4 C 83 % 1022,3 hPa 0,0 mm 0,5 km/h (0 Bft) W-NW 292 1,0 C 0,0 km/h (0 Bft)
02.02.2016 08:20 3,4 C 3,3 C 83 % 1022,3 hPa 0,0 mm 0,3 km/h (0 Bft) NW 315 0,8 C 3,1 km/h (1 Bft)
02.02.2016 08:25 3,4 C 3,3 C 83 % 1022,4 hPa 0,0 mm 0,0 km/h (0 Bft) S-SO 157 0,8 C 0,0 km/h (0 Bft)
02.02.2016 08:30 3,5 C 3,3 C 84 % 1022,4 hPa 0,0 mm 0,0 km/h (0 Bft) O 90 1,1 C 0,0 km/h (0 Bft)
02.02.2016 08:35 3,5 C 3,4 C 84 % 1022,4 hPa 0,0 mm 0,5 km/h (0 Bft) S-SO 157 1,1 C 0,0 km/h (0 Bft)
02.02.2016 08:40 4,2 C 4,3 C 81 % 1022,4 hPa 0,0 mm 1,6 km/h (1 Bft) NO 45 1,2 C 0,0 km/h (0 Bft)
02.02.2016 08:45 3,9 C 4,1 C 84 % 1022,1 hPa 0,0 mm 1,0 km/h (0 Bft) N-NW 337 1,4 C 0,0 km/h (0 Bft)
02.02.2016 08:50 3,6 C 4,0 C 84 % 1022,1 hPa 0,0 mm 0,0 km/h (0 Bft) NO 45 1,2 C 0,0 km/h (0 Bft)
02.02.2016 08:55 3,7 C 3,9 C 84 % 1022,1 hPa 0,0 mm 0,0 km/h (0 Bft) NO 45 1,3 C 0,0 km/h (0 Bft)
02.02.2016 09:00 3,9 C 4,2 C 84 % 1022,1 hPa 0,0 mm 0,0 km/h (0 Bft) S 180 1,4 C 2,6 km/h (1 Bft)
02.02.2016 09:05 4,0 C 4,4 C 81 % 1022,1 hPa 0,0 mm 1,0 km/h (0 Bft) S-SO 157 1,0 C 3,4 km/h (1 Bft)
02.02.2016 09:10 4,7 C 5,2 C 81 % 1022,1 hPa 0,0 mm 2,6 km/h (1 Bft) SW 225 1,7 C 6,2 km/h (2 Bft)
02.02.2016 09:15 5,4 C 5,7 C 81 % 1022,1 hPa 0,0 mm 2,6 km/h (1 Bft) W 270 2,4 C 3,6 km/h (1 Bft)
02.02.2016 09:20 5,4 C 6,2 C 83 % 1022,1 hPa 0,0 mm 1,8 km/h (1 Bft) SW 225 2,7 C 0,0 km/h (0 Bft)
02.02.2016 09:25 5,3 C 6,2 C 80 % 1022,0 hPa 0,0 mm 1,8 km/h (1 Bft) W-SW 247 2,1 C 7,0 km/h (2 Bft)
02.02.2016 09:30 6,2 C 6,8 C 79 % 1022,0 hPa 0,0 mm 2,6 km/h (1 Bft) S 180 2,8 C 3,9 km/h (1 Bft)
02.02.2016 09:35 5,9 C 6,9 C 81 % 1022,0 hPa 0,0 mm 2,3 km/h (1 Bft) N-NW 337 2,9 C 0,0 km/h (0 Bft)
02.02.2016 09:40 5,8 C 6,9 C 79 % 1022,0 hPa 0,0 mm 0,5 km/h (0 Bft) O-SO 112 2,4 C 0,0 km/h (0 Bft)
02.02.2016 09:45 5,9 C 7,1 C 79 % 1021,7 hPa 0,0 mm 0,0 km/h (0 Bft) NO 45 2,5 C 0,0 km/h (0 Bft)
02.02.2016 09:50 6,0 C 7,2 C 78 % 1021,7 hPa 0,0 mm 0,0 km/h (0 Bft) N-NO 22 2,5 C 0,0 km/h (0 Bft)
02.02.2016 09:55 6,3 C 7,4 C 78 % 1021,7 hPa 0,0 mm 0,0 km/h (0 Bft) O-NO 67 2,8 C 0,0 km/h (0 Bft)
02.02.2016 10:00 6,5 C 7,5 C 78 % 1021,7 hPa 0,0 mm 0,3 km/h (0 Bft) W-SW 247 2,9 C 6,5 km/h (2 Bft)
02.02.2016 10:05 6,8 C 7,7 C 78 % 1021,9 hPa 0,0 mm 0,8 km/h (0 Bft) S-SW 202 3,2 C 0,0 km/h (0 Bft)
02.02.2016 10:10 7,0 C 8,1 C 76 % 1021,9 hPa 0,0 mm 1,8 km/h (1 Bft) W-SW 247 3,1 C 0,0 km/h (0 Bft)
02.02.2016 10:15 7,3 C 8,4 C 76 % 1021,9 hPa 0,0 mm 1,3 km/h (1 Bft) O-SO 112 3,4 C 0,0 km/h (0 Bft)
02.02.2016 10:20 7,5 C 8,8 C 76 % 1021,9 hPa 0,0 mm 0,3 km/h (0 Bft) SO 135 3,5 C 0,0 km/h (0 Bft)
02.02.2016 10:25 7,6 C 9,1 C 75 % 1021,9 hPa 0,0 mm 0,0 km/h (0 Bft) SW 225 3,5 C 0,0 km/h (0 Bft)
02.02.2016 10:30 7,8 C 9,5 C 75 % 1021,9 hPa 0,0 mm 0,3 km/h (0 Bft) O-NO 67 3,7 C 0,0 km/h (0 Bft)
02.02.2016 10:35 8,0 C 9,7 C 74 % 1021,9 hPa 0,0 mm 0,8 km/h (0 Bft) SW 225 3,7 C 11,4 km/h (2 Bft)
02.02.2016 10:38 8,0 C 9,7 C 74 % 1021,9 hPa 0,0 mm 0,8 km/h (0 Bft) SW 225 3,7 C 11,4 km/h (2 Bft)
02.02.2016 10:40 8,1 C 9,8 C 73 % 1021,9 hPa 0,0 mm 3,6 km/h (1 Bft) W 270 3,6 C 8,3 km/h (2 Bft)
02.02.2016 10:45 8,3 C 9,9 C 73 % 1021,9 hPa 0,0 mm 5,2 km/h (1 Bft) N-NO 22 3,8 C 4,4 km/h (1 Bft)
02.02.2016 10:50 8,5 C 10,2 C 72 % 1021,9 hPa 0,0 mm 5,4 km/h (1 Bft) W-NW 292 3,7 C 6,2 km/h (2 Bft)
02.02.2016 10:55 8,7 C 10,3 C 71 % 1021,9 hPa 0,0 mm 6,0 km/h (2 Bft) N-NW 337 3,7 C 7,0 km/h (2 Bft)
02.02.2016 11:00 8,8 C 10,4 C 70 % 1021,9 hPa 0,0 mm 6,7 km/h (2 Bft) W-NW 292 3,6 C 13,7 km/h (3 Bft)
02.02.2016 11:05 8,8 C 10,2 C 70 % 1022,0 hPa 0,0 mm 7,3 km/h (2 Bft) NW 315 3,6 C 7,3 km/h (2 Bft)
02.02.2016 11:10 8,8 C 10,1 C 70 % 1022,0 hPa 0,0 mm 6,7 km/h (2 Bft) SW 225 3,6 C 3,6 km/h (1 Bft)
02.02.2016 11:15 8,8 C 10,1 C 70 % 1022,0 hPa 0,0 mm 6,7 km/h (2 Bft) S-SO 157 3,6 C 10,9 km/h (2 Bft)
02.02.2016 11:20 8,9 C 10,1 C 69 % 1022,0 hPa 0,0 mm 7,8 km/h (2 Bft) W-SW 247 3,5 C 10,6 km/h (2 Bft)
02.02.2016 11:25 8,9 C 10,1 C 69 % 1021,7 hPa 0,0 mm 7,5 km/h (2 Bft) W-SW 247 3,5 C 9,3 km/h (2 Bft)
02.02.2016 11:30 9,0 C 10,5 C 68 % 1021,7 hPa 0,0 mm 7,0 km/h (2 Bft) SW 225 3,4 C 6,2 km/h (2 Bft)
02.02.2016 11:35 9,2 C 10,7 C 68 % 1021,7 hPa 0,0 mm 5,7 km/h (1 Bft) N-NW 337 3,6 C 0,0 km/h (0 Bft)
02.02.2016 11:40 9,5 C 11,1 C 68 % 1021,7 hPa 0,0 mm 4,1 km/h (1 Bft) NW 315 3,9 C 2,6 km/h (1 Bft)
02.02.2016 11:45 9,5 C 11,3 C 67 % 1021,5 hPa 0,0 mm 5,7 km/h (1 Bft) W 270 3,7 C 9,6 km/h (2 Bft)
02.02.2016 11:50 9,6 C 10,8 C 66 % 1021,5 hPa 0,0 mm 9,1 km/h (2 Bft) NW 315 3,6 C 14,8 km/h (3 Bft)
02.02.2016 11:55 9,5 C 10,3 C 65 % 1021,5 hPa 0,0 mm 11,1 km/h (2 Bft) W-NW 292 3,3 C 15,3 km/h (3 Bft)
02.02.2016 12:00 9,5 C 10,0 C 65 % 1021,5 hPa 0,0 mm 11,7 km/h (2 Bft) W-SW 247 3,3 C 7,8 km/h (2 Bft)
02.02.2016 12:05 9,5 C 10,0 C 65 % 1021,4 hPa 0,0 mm 9,8 km/h (2 Bft) W-SW 247 3,3 C 8,8 km/h (2 Bft)
02.02.2016 12:10 9,5 C 10,5 C 65 % 1021,4 hPa 0,0 mm 6,0 km/h (2 Bft) SW 225 3,3 C 0,0 km/h (0 Bft)
02.02.2016 12:15 9,6 C 10,6 C 65 % 1021,4 hPa 0,0 mm 3,1 km/h (1 Bft) W-SW 247 3,4 C 0,0 km/h (0 Bft)
02.02.2016 12:20 9,6 C 10,7 C 65 % 1021,4 hPa 0,0 mm 4,7 km/h (1 Bft) W-NW 292 3,4 C 9,8 km/h (2 Bft)
02.02.2016 12:25 9,6 C 10,7 C 65 % 1021,0 hPa 0,0 mm 7,3 km/h (2 Bft) NW 315 3,4 C 14,8 km/h (3 Bft)
02.02.2016 12:30 9,8 C 10,6 C 64 % 1021,0 hPa 0,0 mm 9,1 km/h (2 Bft) W-SW 247 3,3 C 11,7 km/h (2 Bft)
02.02.2016 12:35 9,9 C 10,7 C 64 % 1021,0 hPa 0,0 mm 8,5 km/h (2 Bft) W-SW 247 3,4 C 12,2 km/h (2 Bft)
02.02.2016 12:40 10,0 C 11,1 C 63 % 1021,0 hPa 0,0 mm 7,0 km/h (2 Bft) W 270 3,3 C 3,4 km/h (1 Bft)
02.02.2016 12:45 9,8 C 10,6 C 63 % 1020,9 hPa 0,0 mm 8,8 km/h (2 Bft) W 270 3,1 C 27,2 km/h (4 Bft)
02.02.2016 12:50 9,9 C 10,7 C 64 % 1020,9 hPa 0,0 mm 8,3 km/h (2 Bft) W-NW 292 3,4 C 6,2 km/h (2 Bft)
02.02.2016 12:55 10,0 C 10,8 C 63 % 1020,9 hPa 0,0 mm 8,0 km/h (2 Bft) NW 315 3,3 C 18,9 km/h (3 Bft)
02.02.2016 13:00 10,0 C 10,9 C 63 % 1020,9 hPa 0,0 mm 8,0 km/h (2 Bft) N-NW 337 3,3 C 6,5 km/h (2 Bft)
02.02.2016 13:05 10,0 C 10,9 C 63 % 1020,5 hPa 0,0 mm 8,3 km/h (2 Bft) NW 315 3,3 C 10,1 km/h (2 Bft)
02.02.2016 13:10 10,0 C 11,1 C 63 % 1020,5 hPa 0,0 mm 7,0 km/h (2 Bft) W-NW 292 3,3 C 9,8 km/h (2 Bft)
02.02.2016 13:15 10,0 C 10,9 C 63 % 1020,5 hPa 0,0 mm 6,5 km/h (2 Bft) NW 315 3,3 C 8,3 km/h (2 Bft)
02.02.2016 13:20 9,9 C 10,9 C 63 % 1020,5 hPa 0,0 mm 6,7 km/h (2 Bft) NW 315 3,2 C 9,3 km/h (2 Bft)
02.02.2016 13:25 10,0 C 10,9 C 63 % 1020,3 hPa 0,0 mm 6,2 km/h (2 Bft) W-NW 292 3,3 C 5,7 km/h (1 Bft)
02.02.2016 13:30 9,9 C 11,1 C 63 % 1020,3 hPa 0,0 mm 5,2 km/h (1 Bft) W-NW 292 3,2 C 4,7 km/h (1 Bft)
02.02.2016 13:35 9,9 C 11,1 C 63 % 1020,3 hPa 0,0 mm 5,7 km/h (1 Bft) W-NW 292 3,2 C 15,0 km/h (3 Bft)
02.02.2016 13:40 9,9 C 11,1 C 63 % 1020,3 hPa 0,0 mm 7,0 km/h (2 Bft) W-NW 292 3,2 C 15,3 km/h (3 Bft)
02.02.2016 13:45 10,0 C 11,1 C 62 % 1020,0 hPa 0,0 mm 7,0 km/h (2 Bft) NW 315 3,1 C 5,4 km/h (1 Bft)
02.02.2016 13:50 10,5 C 12,7 C 62 % 1020,0 hPa 0,0 mm 6,7 km/h (2 Bft) NW 315 3,5 C 16,1 km/h (3 Bft)
02.02.2016 13:55 10,7 C 13,1 C 61 % 1020,0 hPa 0,0 mm 7,8 km/h (2 Bft) NW 315 3,5 C 10,6 km/h (2 Bft)
02.02.2016 14:00 10,9 C 13,1 C 59 % 1020,0 hPa 0,0 mm 11,4 km/h (2 Bft) W-NW 292 3,2 C 8,5 km/h (2 Bft)
02.02.2016 14:05 11,0 C 13,3 C 59 % 1019,5 hPa 0,0 mm 9,6 km/h (2 Bft) W-NW 292 3,3 C 5,7 km/h (1 Bft)
02.02.2016 14:10 11,6 C 14,2 C 59 % 1019,5 hPa 0,0 mm 6,2 km/h (2 Bft) W 270 3,9 C 11,4 km/h (2 Bft)
02.02.2016 14:15 11,3 C 14,3 C 59 % 1019,5 hPa 0,0 mm 7,8 km/h (2 Bft) W-NW 292 3,6 C 10,9 km/h (2 Bft)
02.02.2016 14:20 11,3 C 14,2 C 59 % 1019,5 hPa 0,0 mm 7,8 km/h (2 Bft) W-SW 247 3,6 C 3,1 km/h (1 Bft)
02.02.2016 14:25 11,3 C 14,8 C 59 % 1019,6 hPa 0,0 mm 5,2 km/h (1 Bft) NW 315 3,6 C 3,4 km/h (1 Bft)
02.02.2016 14:30 11,2 C 15,0 C 59 % 1019,6 hPa 0,0 mm 4,4 km/h (1 Bft) W 270 3,5 C 7,0 km/h (2 Bft)
02.02.2016 14:35 11,1 C 15,1 C 59 % 1019,6 hPa 0,0 mm 4,1 km/h (1 Bft) O-NO 67 3,4 C 0,0 km/h (0 Bft)
02.02.2016 14:40 11,0 C 16,0 C 59 % 1019,6 hPa 0,0 mm 2,1 km/h (1 Bft) NW 315 3,3 C 4,1 km/h (1 Bft)
02.02.2016 14:45 11,1 C 16,1 C 59 % 1019,3 hPa 0,0 mm 2,6 km/h (1 Bft) W-NW 292 3,4 C 3,6 km/h (1 Bft)
02.02.2016 14:50 11,4 C 15,8 C 59 % 1019,3 hPa 0,0 mm 4,1 km/h (1 Bft) NW 315 3,7 C 4,7 km/h (1 Bft)
02.02.2016 14:55 11,3 C 15,9 C 59 % 1019,3 hPa 0,0 mm 2,8 km/h (1 Bft) W-NW 292 3,6 C 9,1 km/h (2 Bft)
02.02.2016 15:00 11,7 C 15,9 C 59 % 1019,3 hPa 0,0 mm 4,7 km/h (1 Bft) W-NW 292 4,0 C 11,7 km/h (2 Bft)
02.02.2016 15:05 11,9 C 15,9 C 59 % 1018,9 hPa 0,0 mm 6,0 km/h (2 Bft) W 270 4,1 C 4,1 km/h (1 Bft)
02.02.2016 15:10 12,1 C 15,9 C 59 % 1018,9 hPa 0,0 mm 4,7 km/h (1 Bft) NO 45 4,3 C 3,1 km/h (1 Bft)
02.02.2016 15:15 12,1 C 16,2 C 59 % 1018,9 hPa 0,0 mm 3,6 km/h (1 Bft) W-NW 292 4,3 C 4,4 km/h (1 Bft)
02.02.2016 15:20 12,1 C 15,7 C 59 % 1018,9 hPa 0,0 mm 6,0 km/h (2 Bft) N-NW 337 4,3 C 7,3 km/h (2 Bft)
02.02.2016 15:25 12,0 C 15,5 C 58 % 1018,7 hPa 0,0 mm 6,7 km/h (2 Bft) W-SW 247 4,0 C 0,0 km/h (0 Bft)
02.02.2016 15:30 11,8 C 15,5 C 58 % 1018,7 hPa 0,0 mm 5,4 km/h (1 Bft) W-NW 292 3,8 C 9,1 km/h (2 Bft)
02.02.2016 15:35 11,7 C 15,1 C 58 % 1018,7 hPa 0,0 mm 6,2 km/h (2 Bft) W-NW 292 3,7 C 9,1 km/h (2 Bft)
02.02.2016 15:40 10,8 C 13,3 C 58 % 1018,7 hPa 0,0 mm 8,3 km/h (2 Bft) NW 315 2,9 C 11,1 km/h (2 Bft)
02.02.2016 15:45 10,5 C 12,3 C 59 % 1018,6 hPa 0,0 mm 8,0 km/h (2 Bft) W 270 2,8 C 15,8 km/h (3 Bft)
02.02.2016 15:50 10,2 C 11,1 C 59 % 1018,6 hPa 0,0 mm 8,5 km/h (2 Bft) NW 315 2,6 C 8,3 km/h (2 Bft)
02.02.2016 15:55 10,1 C 10,3 C 59 % 1018,6 hPa 0,0 mm 9,8 km/h (2 Bft) SW 225 2,5 C 9,6 km/h (2 Bft)
02.02.2016 16:00 9,6 C 9,6 C 59 % 1018,6 hPa 0,0 mm 9,3 km/h (2 Bft) W-NW 292 2,0 C 18,4 km/h (3 Bft)
02.02.2016 16:05 9,4 C 9,4 C 59 % 1018,5 hPa 0,0 mm 8,3 km/h (2 Bft) W 270 1,8 C 27,7 km/h (4 Bft)
02.02.2016 16:10 9,1 C 9,0 C 60 % 1018,5 hPa 0,0 mm 7,3 km/h (2 Bft) W-NW 292 1,8 C 10,6 km/h (2 Bft)
02.02.2016 16:15 8,9 C 8,9 C 60 % 1018,5 hPa 0,0 mm 6,2 km/h (2 Bft) W 270 1,6 C 6,0 km/h (2 Bft)
02.02.2016 16:20 8,8 C 8,7 C 60 % 1018,5 hPa 0,0 mm 6,2 km/h (2 Bft) W 270 1,5 C 7,0 km/h (2 Bft)
02.02.2016 16:25 8,7 C 8,7 C 61 % 1018,4 hPa 0,0 mm 6,2 km/h (2 Bft) NW 315 1,6 C 4,7 km/h (1 Bft)
02.02.2016 16:30 8,3 C 8,4 C 61 % 1018,4 hPa 0,0 mm 5,4 km/h (1 Bft) W-SW 247 1,2 C 5,7 km/h (1 Bft)
02.02.2016 16:35 8,2 C 8,2 C 62 % 1018,4 hPa 0,0 mm 4,9 km/h (1 Bft) W 270 1,4 C 5,4 km/h (1 Bft)
02.02.2016 16:38 8,2 C 8,2 C 62 % 1018,4 hPa 0,0 mm 4,9 km/h (1 Bft) W 270 1,4 C 5,4 km/h (1 Bft)
02.02.2016 16:40 7,9 C 8,0 C 62 % 1018,4 hPa 0,0 mm 4,9 km/h (1 Bft) W 270 1,1 C 4,7 km/h (1 Bft)
02.02.2016 16:45 7,8 C 7,8 C 62 % 1017,9 hPa 0,0 mm 3,9 km/h (1 Bft) W-SW 247 1,0 C 3,9 km/h (1 Bft)
02.02.2016 16:50 7,7 C 7,6 C 62 % 1017,9 hPa 0,0 mm 3,9 km/h (1 Bft) W 270 0,9 C 5,4 km/h (1 Bft)
02.02.2016 16:55 7,6 C 7,5 C 62 % 1017,9 hPa 0,0 mm 4,7 km/h (1 Bft) SW 225 0,8 C 6,7 km/h (2 Bft)
02.02.2016 17:00 7,3 C 7,2 C 62 % 1017,9 hPa 0,0 mm 3,4 km/h (1 Bft) W-SW 247 0,5 C 0,0 km/h (0 Bft)
02.02.2016 17:05 7,3 C 7,2 C 63 % 1017,9 hPa 0,0 mm 2,8 km/h (1 Bft) S 180 0,7 C 2,8 km/h (1 Bft)
02.02.2016 17:10 7,1 C 6,9 C 63 % 1017,9 hPa 0,0 mm 2,6 km/h (1 Bft) W-SW 247 0,5 C 0,0 km/h (0 Bft)
02.02.2016 17:15 7,0 C 6,8 C 63 % 1017,9 hPa 0,0 mm 1,8 km/h (1 Bft) S 180 0,4 C 0,0 km/h (0 Bft)
02.02.2016 17:20 7,2 C 6,8 C 64 % 1017,9 hPa 0,0 mm 2,3 km/h (1 Bft) S-SW 202 0,9 C 5,7 km/h (1 Bft)
02.02.2016 17:25 7,0 C 6,7 C 64 % 1017,4 hPa 0,0 mm 3,6 km/h (1 Bft) S 180 0,7 C 4,7 km/h (1 Bft)
02.02.2016 17:30 7,0 C 6,7 C 64 % 1017,4 hPa 0,0 mm 4,7 km/h (1 Bft) S 180 0,7 C 5,4 km/h (1 Bft)
02.02.2016 17:35 6,7 C 6,5 C 65 % 1017,4 hPa 0,0 mm 4,7 km/h (1 Bft) O 90 0,6 C 6,0 km/h (2 Bft)
02.02.2016 17:40 6,2 C 6,1 C 64 % 1017,4 hPa 0,0 mm 3,6 km/h (1 Bft) N-NW 337 -0,1 C 0,0 km/h (0 Bft)
02.02.2016 17:45 5,3 C 5,4 C 65 % 1017,4 hPa 0,0 mm 1,8 km/h (1 Bft) N 360 -0,7 C 0,0 km/h (0 Bft)
02.02.2016 17:50 5,1 C 4,9 C 69 % 1017,4 hPa 0,0 mm 0,0 km/h (0 Bft) SO 135 -0,1 C 2,6 km/h (1 Bft)
02.02.2016 17:55 5,1 C 4,7 C 70 % 1017,4 hPa 0,0 mm 0,3 km/h (0 Bft) SO 135 0,1 C 0,0 km/h (0 Bft)
02.02.2016 18:00 5,3 C 4,7 C 71 % 1017,4 hPa 0,0 mm 0,3 km/h (0 Bft) W-SW 247 0,5 C 0,0 km/h (0 Bft)
02.02.2016 18:05 5,1 C 4,5 C 69 % 1017,4 hPa 0,0 mm 0,0 km/h (0 Bft) W 270 -0,1 C 0,0 km/h (0 Bft)
02.02.2016 18:10 4,5 C 4,1 C 69 % 1017,4 hPa 0,0 mm 0,3 km/h (0 Bft) N 360 -0,7 C 0,0 km/h (0 Bft)
02.02.2016 18:15 4,5 C 4,1 C 71 % 1017,4 hPa 0,0 mm 1,0 km/h (0 Bft) W 270 -0,3 C 4,1 km/h (1 Bft)
02.02.2016 18:20 5,5 C 5,1 C 70 % 1017,4 hPa 0,0 mm 4,4 km/h (1 Bft) NW 315 0,5 C 9,6 km/h (2 Bft)
02.02.2016 18:25 5,0 C 4,7 C 69 % 1017,5 hPa 0,0 mm 6,2 km/h (2 Bft) W 270 -0,2 C 7,3 km/h (2 Bft)
02.02.2016 18:30 5,6 C 5,2 C 69 % 1017,5 hPa 0,0 mm 6,2 km/h (2 Bft) W 270 0,4 C 4,1 km/h (1 Bft)
02.02.2016 18:35 6,0 C 5,6 C 66 % 1017,5 hPa 0,0 mm 6,7 km/h (2 Bft) SW 225 0,1 C 10,4 km/h (2 Bft)
02.02.2016 18:40 6,4 C 6,0 C 63 % 1017,5 hPa 0,0 mm 8,3 km/h (2 Bft) W-NW 292 -0,1 C 6,2 km/h (2 Bft)
02.02.2016 18:45 6,4 C 6,0 C 61 % 1017,7 hPa 0,0 mm 8,5 km/h (2 Bft) W-SW 247 -0,6 C 12,4 km/h (3 Bft)
02.02.2016 18:50 6,5 C 6,2 C 60 % 1017,7 hPa 0,0 mm 8,5 km/h (2 Bft) W 270 -0,7 C 11,9 km/h (2 Bft)
02.02.2016 18:55 6,6 C 6,2 C 59 % 1017,7 hPa 0,0 mm 9,6 km/h (2 Bft) W-SW 247 -0,8 C 11,9 km/h (2 Bft)
02.02.2016 19:00 7,3 C 6,6 C 59 % 1017,7 hPa 0,0 mm 12,4 km/h (3 Bft) W 270 -0,2 C 18,9 km/h (3 Bft)
02.02.2016 19:05 7,3 C 6,8 C 59 % 1017,9 hPa 0,0 mm 13,7 km/h (3 Bft) W 270 -0,2 C 30,0 km/h (5 Bft)
02.02.2016 19:10 7,4 C 6,7 C 58 % 1017,9 hPa 0,0 mm 15,0 km/h (3 Bft) W 270 -0,3 C 22,3 km/h (4 Bft)
02.02.2016 19:15 7,5 C 6,8 C 58 % 1017,9 hPa 0,0 mm 16,1 km/h (3 Bft) NW 315 -0,2 C 32,6 km/h (5 Bft)
02.02.2016 19:20 7,5 C 7,0 C 58 % 1017,9 hPa 0,0 mm 15,0 km/h (3 Bft) NW 315 -0,2 C 14,5 km/h (3 Bft)
02.02.2016 19:25 7,4 C 7,0 C 58 % 1017,9 hPa 0,0 mm 13,5 km/h (3 Bft) W-SW 247 -0,3 C 26,2 km/h (4 Bft)
02.02.2016 19:30 7,4 C 7,0 C 58 % 1017,9 hPa 0,0 mm 12,4 km/h (3 Bft) NW 315 -0,3 C 12,2 km/h (2 Bft)
02.02.2016 19:35 7,3 C 6,8 C 58 % 1017,9 hPa 0,0 mm 12,2 km/h (2 Bft) SW 225 -0,4 C 23,0 km/h (4 Bft)
02.02.2016 19:40 7,4 C 6,9 C 58 % 1017,9 hPa 0,0 mm 12,4 km/h (3 Bft) SO 135 -0,3 C 16,3 km/h (3 Bft)
02.02.2016 19:45 7,4 C 7,0 C 59 % 1018,0 hPa 0,0 mm 13,2 km/h (3 Bft) W-NW 292 -0,1 C 33,7 km/h (5 Bft)
02.02.2016 19:50 7,4 C 6,8 C 59 % 1018,0 hPa 0,0 mm 12,9 km/h (3 Bft) W 270 -0,1 C 18,9 km/h (3 Bft)
02.02.2016 19:55 7,3 C 6,8 C 59 % 1018,0 hPa 0,0 mm 12,9 km/h (3 Bft) NW 315 -0,2 C 12,4 km/h (3 Bft)
02.02.2016 20:00 7,3 C 6,8 C 59 % 1018,0 hPa 0,0 mm 11,4 km/h (2 Bft) W-SW 247 -0,2 C 11,4 km/h (2 Bft)
02.02.2016 20:05 7,5 C 7,1 C 59 % 1018,0 hPa 0,0 mm 12,4 km/h (3 Bft) W-NW 292 0,0 C 16,1 km/h (3 Bft)
02.02.2016 20:10 7,4 C 7,0 C 59 % 1018,0 hPa 0,0 mm 13,5 km/h (3 Bft) NW 315 -0,1 C 14,2 km/h (3 Bft)
02.02.2016 20:15 7,4 C 7,0 C 59 % 1018,0 hPa 0,0 mm 13,5 km/h (3 Bft) W-NW 292 -0,1 C 15,3 km/h (3 Bft)
02.02.2016 20:20 7,4 C 7,0 C 60 % 1018,0 hPa 0,0 mm 14,0 km/h (3 Bft) NW 315 0,2 C 25,6 km/h (4 Bft)
02.02.2016 20:25 7,3 C 6,9 C 60 % 1018,4 hPa 0,0 mm 14,5 km/h (3 Bft) W-NW 292 0,1 C 36,0 km/h (5 Bft)
02.02.2016 20:30 7,2 C 6,8 C 61 % 1018,4 hPa 0,0 mm 15,0 km/h (3 Bft) W-NW 292 0,2 C 21,5 km/h (4 Bft)
02.02.2016 20:35 7,2 C 6,7 C 62 % 1018,4 hPa 0,0 mm 15,5 km/h (3 Bft) W 270 0,4 C 19,4 km/h (3 Bft)
02.02.2016 20:40 7,2 C 6,6 C 63 % 1018,4 hPa 0,0 mm 19,7 km/h (3 Bft) W 270 0,6 C 26,7 km/h (4 Bft)
02.02.2016 20:45 7,1 C 6,5 C 64 % 1018,6 hPa 0,0 mm 20,5 km/h (4 Bft) W 270 0,8 C 40,1 km/h (6 Bft)
02.02.2016 20:50 7,2 C 6,5 C 67 % 1018,6 hPa 0,0 mm 23,0 km/h (4 Bft) W 270 1,5 C 41,9 km/h (6 Bft)
02.02.2016 20:55 7,1 C 6,4 C 67 % 1018,6 hPa 0,0 mm 22,0 km/h (4 Bft) W 270 1,4 C 18,4 km/h (3 Bft)
02.02.2016 21:00 7,1 C 6,5 C 68 % 1018,6 hPa 0,0 mm 20,5 km/h (4 Bft) W-NW 292 1,6 C 23,0 km/h (4 Bft)
02.02.2016 21:05 7,1 C 6,5 C 69 % 1019,1 hPa 0,0 mm 18,9 km/h (3 Bft) W-SW 247 1,8 C 14,5 km/h (3 Bft)
02.02.2016 21:10 7,0 C 6,4 C 70 % 1019,1 hPa 0,0 mm 18,9 km/h (3 Bft) W-SW 247 1,9 C 31,8 km/h (5 Bft)
02.02.2016 21:15 6,9 C 6,3 C 70 % 1019,1 hPa 0,0 mm 17,9 km/h (3 Bft) W 270 1,8 C 31,1 km/h (5 Bft)
02.02.2016 21:20 6,8 C 6,2 C 70 % 1019,1 hPa 0,0 mm 18,4 km/h (3 Bft) W-NW 292 1,7 C 16,6 km/h (3 Bft)
02.02.2016 21:25 6,7 C 6,1 C 71 % 1019,2 hPa 0,0 mm 18,4 km/h (3 Bft) W 270 1,8 C 31,6 km/h (5 Bft)
02.02.2016 21:30 6,7 C 6,1 C 71 % 1019,2 hPa 0,0 mm 18,6 km/h (3 Bft) W 270 1,8 C 21,2 km/h (4 Bft)
02.02.2016 21:35 6,7 C 6,0 C 71 % 1019,2 hPa 0,0 mm 20,5 km/h (4 Bft) W 270 1,8 C 26,2 km/h (4 Bft)
02.02.2016 21:40 6,7 C 6,0 C 71 % 1019,2 hPa 0,0 mm 22,0 km/h (4 Bft) NW 315 1,8 C 15,5 km/h (3 Bft)
02.02.2016 21:45 6,6 C 5,6 C 71 % 1019,4 hPa 0,0 mm 21,2 km/h (4 Bft) W-SW 247 1,7 C 49,2 km/h (6 Bft)
02.02.2016 21:50 6,5 C 5,8 C 71 % 1019,4 hPa 0,0 mm 20,5 km/h (4 Bft) W 270 1,6 C 20,5 km/h (4 Bft)
02.02.2016 21:55 6,5 C 5,7 C 72 % 1019,4 hPa 0,0 mm 22,3 km/h (4 Bft) W 270 1,8 C 55,7 km/h (7 Bft)
02.02.2016 22:00 6,4 C 5,7 C 72 % 1019,4 hPa 0,0 mm 18,6 km/h (3 Bft) W-NW 292 1,7 C 23,0 km/h (4 Bft)
02.02.2016 22:05 6,4 C 5,7 C 72 % 1019,2 hPa 0,0 mm 19,4 km/h (3 Bft) W-NW 292 1,7 C 55,7 km/h (7 Bft)
02.02.2016 22:10 6,4 C 5,7 C 71 % 1019,2 hPa 0,0 mm 21,0 km/h (4 Bft) W-NW 292 1,5 C 15,5 km/h (3 Bft)
02.02.2016 22:15 6,5 C 5,7 C 71 % 1019,2 hPa 0,0 mm 21,2 km/h (4 Bft) W 270 1,6 C 38,3 km/h (5 Bft)
02.02.2016 22:20 6,7 C 5,9 C 70 % 1019,2 hPa 0,0 mm 23,0 km/h (4 Bft) W-NW 292 1,6 C 41,2 km/h (6 Bft)
02.02.2016 22:25 6,6 C 5,8 C 69 % 1019,0 hPa 0,0 mm 22,8 km/h (4 Bft) W-NW 292 1,3 C 24,1 km/h (4 Bft)
02.02.2016 22:30 6,7 C 5,9 C 69 % 1019,0 hPa 0,0 mm 21,2 km/h (4 Bft) W-SW 247 1,4 C 27,4 km/h (4 Bft)
02.02.2016 22:35 6,7 C 5,9 C 68 % 1019,0 hPa 0,0 mm 21,8 km/h (4 Bft) W 270 1,2 C 25,9 km/h (4 Bft)
02.02.2016 22:39 6,9 C 5,8 C 67 % 1019,0 hPa 0,0 mm 25,4 km/h (4 Bft) W 270 1,2 C 27,4 km/h (4 Bft)
02.02.2016 22:45 6,9 C 6,1 C 66 % 1019,0 hPa 0,0 mm 25,9 km/h (4 Bft) SW 225 1,0 C 31,8 km/h (5 Bft)
02.02.2016 22:50 6,8 C 6,0 C 66 % 1019,0 hPa 0,0 mm 23,3 km/h (4 Bft) W 270 0,9 C 23,0 km/h (4 Bft)
02.02.2016 22:55 6,8 C 6,0 C 66 % 1019,0 hPa 0,0 mm 23,6 km/h (4 Bft) W-NW 292 0,9 C 26,7 km/h (4 Bft)
02.02.2016 23:00 6,8 C 6,0 C 66 % 1019,0 hPa 0,0 mm 24,3 km/h (4 Bft) W 270 0,9 C 25,4 km/h (4 Bft)
02.02.2016 23:05 6,7 C 5,9 C 66 % 1018,7 hPa 0,0 mm 23,0 km/h (4 Bft) S-SW 202 0,8 C 26,9 km/h (4 Bft)
02.02.2016 23:10 6,8 C 5,7 C 66 % 1018,7 hPa 0,0 mm 23,8 km/h (4 Bft) W 270 0,9 C 28,0 km/h (4 Bft)
02.02.2016 23:15 6,8 C 6,0 C 66 % 1018,7 hPa 0,0 mm 25,4 km/h (4 Bft) W 270 0,9 C 45,1 km/h (6 Bft)
02.02.2016 23:20 6,7 C 5,9 C 66 % 1018,7 hPa 0,0 mm 22,8 km/h (4 Bft) W-NW 292 0,8 C 30,8 km/h (5 Bft)
02.02.2016 23:25 6,6 C 5,6 C 66 % 1018,6 hPa 0,0 mm 21,5 km/h (4 Bft) W-SW 247 0,7 C 19,2 km/h (3 Bft)
02.02.2016 23:30 6,7 C 6,0 C 66 % 1018,6 hPa 0,0 mm 22,0 km/h (4 Bft) W 270 0,8 C 23,0 km/h (4 Bft)
02.02.2016 23:35 6,7 C 5,9 C 66 % 1018,6 hPa 0,0 mm 22,8 km/h (4 Bft) NW 315 0,8 C 37,0 km/h (5 Bft)
02.02.2016 23:40 6,8 C 6,0 C 65 % 1018,6 hPa 0,0 mm 23,6 km/h (4 Bft) W 270 0,7 C 22,8 km/h (4 Bft)
02.02.2016 23:45 6,6 C 5,9 C 65 % 1018,9 hPa 0,0 mm 22,8 km/h (4 Bft) W 270 0,5 C 24,1 km/h (4 Bft)
02.02.2016 23:50 6,6 C 5,9 C 66 % 1018,9 hPa 0,0 mm 21,0 km/h (4 Bft) W 270 0,7 C 28,0 km/h (4 Bft)
02.02.2016 23:55 6,6 C 5,6 C 65 % 1018,9 hPa 0,0 mm 21,0 km/h (4 Bft) W 270 0,5 C 18,9 km/h (3 Bft)
_ Min-Zeit 08:25 08:30 19:40 18:20 - 18:05 - - 18:55 18:10
Minimum _ 3,4 C 3,3 C 58 % 1017,4 hPa - 0,0 km/h (0 Bft) - - -0,8 C 0,0 km/h (0 Bft)
_ Max-Zeit 15:20 15:15 03:05 00:20 23:55 22:45 - - 15:20 22:05
Maximum _ 12,1 C 16,2 C 88 % 1024,6 hPa 0,0 mm 25,9 km/h
SW (4 Bft)
- - 4,3 C 55,7 km/h
W-NW (7 Bft)
Durchschnitt _ 6,8 C 7,0 C 73 % 1020,8 hPa #0,0 mm 7,1 km/h (2 Bft) W - 2,1 C 9,9 km/h (2 Bft)